owner,sensor,date,latitude,longitude,relative_humidity,qcFlag 
COMPS,ioos:station:USF.COMPS:C12:1,2016-07-01T00:05:00Z,27.4980,-83.7220,70.68,1111122 
COMPS,ioos:station:USF.COMPS:C12:1,2016-07-01T00:35:00Z,27.4980,-83.7220,72.31,1111122 
COMPS,ioos:station:USF.COMPS:C12:1,2016-07-01T01:05:00Z,27.4980,-83.7220,85.18,1111122 
COMPS,ioos:station:USF.COMPS:C12:1,2016-07-01T01:35:00Z,27.4980,-83.7220,81.85,1111122 
COMPS,ioos:station:USF.COMPS:C12:1,2016-07-01T02:05:00Z,27.4980,-83.7220,80.71,1111122 
COMPS,ioos:station:USF.COMPS:C12:1,2016-07-01T02:35:00Z,27.4980,-83.7220,78.73,1111122 
COMPS,ioos:station:USF.COMPS:C12:1,2016-07-01T03:05:00Z,27.4980,-83.7220,77.86,1111122 
COMPS,ioos:station:USF.COMPS:C12:1,2016-07-01T03:35:00Z,27.4980,-83.7220,77.44,1111122 
COMPS,ioos:station:USF.COMPS:C12:1,2016-07-01T04:05:00Z,27.4980,-83.7220,75.96,1111122 
COMPS,ioos:station:USF.COMPS:C12:1,2016-07-01T04:35:00Z,27.4980,-83.7220,75.23,1111122 
COMPS,ioos:station:USF.COMPS:C12:1,2016-07-01T05:05:00Z,27.4980,-83.7220,74.35,1111122 
COMPS,ioos:station:USF.COMPS:C12:1,2016-07-01T05:35:00Z,27.4980,-83.7220,75.07,1111122 
COMPS,ioos:station:USF.COMPS:C12:1,2016-07-01T06:05:00Z,27.4980,-83.7220,74.05,1111122 
COMPS,ioos:station:USF.COMPS:C12:1,2016-07-01T06:35:00Z,27.4980,-83.7220,76.26,1111122 
COMPS,ioos:station:USF.COMPS:C12:1,2016-07-01T07:05:00Z,27.4980,-83.7220,76.71,1111122 
COMPS,ioos:station:USF.COMPS:C12:1,2016-07-01T07:35:00Z,27.4980,-83.7220,76.98,1111122 
COMPS,ioos:station:USF.COMPS:C12:1,2016-07-01T08:05:00Z,27.4980,-83.7220,76.85,1111122 
COMPS,ioos:station:USF.COMPS:C12:1,2016-07-01T08:35:00Z,27.4980,-83.7220,76.71,1111122 
COMPS,ioos:station:USF.COMPS:C12:1,2016-07-01T09:05:00Z,27.4980,-83.7220,77.53,1111122 
COMPS,ioos:station:USF.COMPS:C12:1,2016-07-01T09:35:00Z,27.4980,-83.7220,77.33,1111122 
COMPS,ioos:station:USF.COMPS:C12:1,2016-07-01T10:05:00Z,27.4980,-83.7220,76.39,1111122 
COMPS,ioos:station:USF.COMPS:C12:1,2016-07-01T10:35:00Z,27.4980,-83.7220,74.52,1111122 
COMPS,ioos:station:USF.COMPS:C12:1,2016-07-01T11:05:00Z,27.4980,-83.7220,73.97,1111122 
COMPS,ioos:station:USF.COMPS:C12:1,2016-07-01T11:35:00Z,27.4980,-83.7220,74.22,1111122 
COMPS,ioos:station:USF.COMPS:C12:1,2016-07-01T12:05:00Z,27.4980,-83.7220,72.73,1111122 
COMPS,ioos:station:USF.COMPS:C12:1,2016-07-01T12:35:00Z,27.4980,-83.7220,72.85,1111122 
COMPS,ioos:station:USF.COMPS:C12:1,2016-07-01T13:05:00Z,27.4980,-83.7220,73.76,1111122 
COMPS,ioos:station:USF.COMPS:C12:1,2016-07-01T13:35:00Z,27.4980,-83.7220,74.48,1111122 
COMPS,ioos:station:USF.COMPS:C12:1,2016-07-01T14:05:00Z,27.4980,-83.7220,73.07,1111122 
COMPS,ioos:station:USF.COMPS:C12:1,2016-07-01T14:35:00Z,27.4980,-83.7220,78.42,1111122 
COMPS,ioos:station:USF.COMPS:C12:1,2016-07-01T15:05:00Z,27.4980,-83.7220,77.0,1111122 
COMPS,ioos:station:USF.COMPS:C12:1,2016-07-01T15:35:00Z,27.4980,-83.7220,75.74,1111122 
COMPS,ioos:station:USF.COMPS:C12:1,2016-07-01T16:05:00Z,27.4980,-83.7220,75.06,1111122 
COMPS,ioos:station:USF.COMPS:C12:1,2016-07-01T16:35:00Z,27.4980,-83.7220,74.44,1111122 
COMPS,ioos:station:USF.COMPS:C12:1,2016-07-01T17:05:00Z,27.4980,-83.7220,74.68,1111122 
COMPS,ioos:station:USF.COMPS:C12:1,2016-07-01T17:35:00Z,27.4980,-83.7220,75.12,1111122 
COMPS,ioos:station:USF.COMPS:C12:1,2016-07-01T18:05:00Z,27.4980,-83.7220,74.19,1111122 
COMPS,ioos:station:USF.COMPS:C12:1,2016-07-01T18:35:00Z,27.4980,-83.7220,74.36,1111122 
COMPS,ioos:station:USF.COMPS:C12:1,2016-07-01T19:05:00Z,27.4980,-83.7220,72.54,1111122 
COMPS,ioos:station:USF.COMPS:C12:1,2016-07-01T19:35:00Z,27.4980,-83.7220,72.69,1111122 
COMPS,ioos:station:USF.COMPS:C12:1,2016-07-01T20:05:00Z,27.4980,-83.7220,72.68,1111122 
COMPS,ioos:station:USF.COMPS:C12:1,2016-07-01T20:35:00Z,27.4980,-83.7220,75.17,1111122 
COMPS,ioos:station:USF.COMPS:C12:1,2016-07-01T21:05:00Z,27.4980,-83.7220,78.33,1111122 
COMPS,ioos:station:USF.COMPS:C12:1,2016-07-01T21:35:00Z,27.4980,-83.7220,75.7,1111122 
COMPS,ioos:station:USF.COMPS:C12:1,2016-07-01T22:05:00Z,27.4980,-83.7220,82.89,1111122 
COMPS,ioos:station:USF.COMPS:C12:1,2016-07-01T22:35:00Z,27.4980,-83.7220,83.78,1111122 
COMPS,ioos:station:USF.COMPS:C12:1,2016-07-01T23:05:00Z,27.4980,-83.7220,77.93,1111122 
COMPS,ioos:station:USF.COMPS:C12:1,2016-07-01T23:35:00Z,27.4980,-83.7220,74.62,1111122 
COMPS,ioos:station:USF.COMPS:C12:1,2016-07-02T00:05:00Z,27.4980,-83.7220,76.34,1111122 
COMPS,ioos:station:USF.COMPS:C12:1,2016-07-02T00:35:00Z,27.4980,-83.7220,75.92,1111122 
COMPS,ioos:station:USF.COMPS:C12:1,2016-07-02T01:05:00Z,27.4980,-83.7220,75.26,1111122 
COMPS,ioos:station:USF.COMPS:C12:1,2016-07-02T01:35:00Z,27.4980,-83.7220,73.57,1111122 
COMPS,ioos:station:USF.COMPS:C12:1,2016-07-02T02:05:00Z,27.4980,-83.7220,73.07,1111122 
COMPS,ioos:station:USF.COMPS:C12:1,2016-07-02T02:35:00Z,27.4980,-83.7220,73.32,1111122 
COMPS,ioos:station:USF.COMPS:C12:1,2016-07-02T03:05:00Z,27.4980,-83.7220,71.9,1111122 
COMPS,ioos:station:USF.COMPS:C12:1,2016-07-02T03:35:00Z,27.4980,-83.7220,72.35,1111122 
COMPS,ioos:station:USF.COMPS:C12:1,2016-07-02T04:05:00Z,27.4980,-83.7220,72.26,1111122 
COMPS,ioos:station:USF.COMPS:C12:1,2016-07-02T04:35:00Z,27.4980,-83.7220,72.09,1111122 
COMPS,ioos:station:USF.COMPS:C12:1,2016-07-02T05:05:00Z,27.4980,-83.7220,72.26,1111122 
COMPS,ioos:station:USF.COMPS:C12:1,2016-07-02T05:35:00Z,27.4980,-83.7220,72.9,1111122 
COMPS,ioos:station:USF.COMPS:C12:1,2016-07-02T06:05:00Z,27.4980,-83.7220,72.36,1111122 
COMPS,ioos:station:USF.COMPS:C12:1,2016-07-02T06:35:00Z,27.4980,-83.7220,72.56,1111122 
COMPS,ioos:station:USF.COMPS:C12:1,2016-07-02T07:05:00Z,27.4980,-83.7220,76.06,1111122 
COMPS,ioos:station:USF.COMPS:C12:1,2016-07-02T07:35:00Z,27.4980,-83.7220,77.36,1111122 
COMPS,ioos:station:USF.COMPS:C12:1,2016-07-02T08:05:00Z,27.4980,-83.7220,77.82,1111122 
COMPS,ioos:station:USF.COMPS:C12:1,2016-07-02T08:35:00Z,27.4980,-83.7220,78.64,1111122 
COMPS,ioos:station:USF.COMPS:C12:1,2016-07-02T09:05:00Z,27.4980,-83.7220,79.4,1111122 
COMPS,ioos:station:USF.COMPS:C12:1,2016-07-02T09:35:00Z,27.4980,-83.7220,79.74,1111122 
COMPS,ioos:station:USF.COMPS:C12:1,2016-07-02T10:05:00Z,27.4980,-83.7220,77.03,1111122 
COMPS,ioos:station:USF.COMPS:C12:1,2016-07-02T10:35:00Z,27.4980,-83.7220,77.63,1111122 
COMPS,ioos:station:USF.COMPS:C12:1,2016-07-02T11:05:00Z,27.4980,-83.7220,76.98,1111122 
COMPS,ioos:station:USF.COMPS:C12:1,2016-07-02T11:35:00Z,27.4980,-83.7220,75.37,1111122 
COMPS,ioos:station:USF.COMPS:C12:1,2016-07-02T12:05:00Z,27.4980,-83.7220,75.78,1111122 
COMPS,ioos:station:USF.COMPS:C12:1,2016-07-02T12:35:00Z,27.4980,-83.7220,76.56,1111122 
COMPS,ioos:station:USF.COMPS:C12:1,2016-07-02T13:05:00Z,27.4980,-83.7220,76.79,1111122 
COMPS,ioos:station:USF.COMPS:C12:1,2016-07-02T13:35:00Z,27.4980,-83.7220,76.15,1111122 
COMPS,ioos:station:USF.COMPS:C12:1,2016-07-02T14:05:00Z,27.4980,-83.7220,74.27,1111122 
COMPS,ioos:station:USF.COMPS:C12:1,2016-07-02T14:35:00Z,27.4980,-83.7220,75.68,1111122 
COMPS,ioos:station:USF.COMPS:C12:1,2016-07-02T15:05:00Z,27.4980,-83.7220,78.4,1111122 
COMPS,ioos:station:USF.COMPS:C12:1,2016-07-02T15:35:00Z,27.4980,-83.7220,78.53,1111122 
COMPS,ioos:station:USF.COMPS:C12:1,2016-07-02T16:05:00Z,27.4980,-83.7220,78.59,1111122 
COMPS,ioos:station:USF.COMPS:C12:1,2016-07-02T16:35:00Z,27.4980,-83.7220,76.21,1111122 
COMPS,ioos:station:USF.COMPS:C12:1,2016-07-02T17:05:00Z,27.4980,-83.7220,77.74,1111122 
COMPS,ioos:station:USF.COMPS:C12:1,2016-07-02T17:35:00Z,27.4980,-83.7220,75.19,1111122 
COMPS,ioos:station:USF.COMPS:C12:1,2016-07-02T18:05:00Z,27.4980,-83.7220,75.98,1111122 
COMPS,ioos:station:USF.COMPS:C12:1,2016-07-02T18:35:00Z,27.4980,-83.7220,76.45,1111122 
COMPS,ioos:station:USF.COMPS:C12:1,2016-07-02T19:05:00Z,27.4980,-83.7220,73.81,1111122 
COMPS,ioos:station:USF.COMPS:C12:1,2016-07-02T19:35:00Z,27.4980,-83.7220,72.97,1111122 
COMPS,ioos:station:USF.COMPS:C12:1,2016-07-02T20:05:00Z,27.4980,-83.7220,72.69,1111122 
COMPS,ioos:station:USF.COMPS:C12:1,2016-07-02T20:35:00Z,27.4980,-83.7220,73.12,1111122 
COMPS,ioos:station:USF.COMPS:C12:1,2016-07-02T21:05:00Z,27.4980,-83.7220,76.48,1111122 
COMPS,ioos:station:USF.COMPS:C12:1,2016-07-02T21:35:00Z,27.4980,-83.7220,81.28,1111122 
COMPS,ioos:station:USF.COMPS:C12:1,2016-07-02T22:05:00Z,27.4980,-83.7220,79.74,1111122 
COMPS,ioos:station:USF.COMPS:C12:1,2016-07-02T22:35:00Z,27.4980,-83.7220,78.6,1111122 
COMPS,ioos:station:USF.COMPS:C12:1,2016-07-02T23:05:00Z,27.4980,-83.7220,77.4,1111122 
COMPS,ioos:station:USF.COMPS:C12:1,2016-07-02T23:35:00Z,27.4980,-83.7220,77.52,1111122 
COMPS,ioos:station:USF.COMPS:C12:1,2016-07-03T00:05:00Z,27.4980,-83.7220,78.5,1111122 
COMPS,ioos:station:USF.COMPS:C12:1,2016-07-03T00:35:00Z,27.4980,-83.7220,75.01,1111122 
COMPS,ioos:station:USF.COMPS:C12:1,2016-07-03T01:05:00Z,27.4980,-83.7220,78.85,1111122 
COMPS,ioos:station:USF.COMPS:C12:1,2016-07-03T01:35:00Z,27.4980,-83.7220,78.74,1111122 
COMPS,ioos:station:USF.COMPS:C12:1,2016-07-03T02:05:00Z,27.4980,-83.7220,78.43,1111122 
COMPS,ioos:station:USF.COMPS:C12:1,2016-07-03T02:35:00Z,27.4980,-83.7220,77.31,1111122 
COMPS,ioos:station:USF.COMPS:C12:1,2016-07-03T03:05:00Z,27.4980,-83.7220,76.28,1111122 
COMPS,ioos:station:USF.COMPS:C12:1,2016-07-03T03:35:00Z,27.4980,-83.7220,77.4,1111122 
COMPS,ioos:station:USF.COMPS:C12:1,2016-07-03T04:05:00Z,27.4980,-83.7220,76.08,1111122 
COMPS,ioos:station:USF.COMPS:C12:1,2016-07-03T04:35:00Z,27.4980,-83.7220,74.64,1111122 
COMPS,ioos:station:USF.COMPS:C12:1,2016-07-03T05:05:00Z,27.4980,-83.7220,74.9,1111122 
COMPS,ioos:station:USF.COMPS:C12:1,2016-07-03T05:35:00Z,27.4980,-83.7220,75.32,1111122 
COMPS,ioos:station:USF.COMPS:C12:1,2016-07-03T06:05:00Z,27.4980,-83.7220,76.73,1111122 
COMPS,ioos:station:USF.COMPS:C12:1,2016-07-03T06:35:00Z,27.4980,-83.7220,74.8,1111122 
COMPS,ioos:station:USF.COMPS:C12:1,2016-07-03T07:05:00Z,27.4980,-83.7220,74.6,1111122 
COMPS,ioos:station:USF.COMPS:C12:1,2016-07-03T07:35:00Z,27.4980,-83.7220,75.81,1111122 
COMPS,ioos:station:USF.COMPS:C12:1,2016-07-03T08:05:00Z,27.4980,-83.7220,78.23,1111122 
COMPS,ioos:station:USF.COMPS:C12:1,2016-07-03T08:35:00Z,27.4980,-83.7220,78.6,1111122 
COMPS,ioos:station:USF.COMPS:C12:1,2016-07-03T09:05:00Z,27.4980,-83.7220,78.04,1111122 
COMPS,ioos:station:USF.COMPS:C12:1,2016-07-03T09:35:00Z,27.4980,-83.7220,77.05,1111122 
COMPS,ioos:station:USF.COMPS:C12:1,2016-07-03T10:05:00Z,27.4980,-83.7220,77.08,1111122 
COMPS,ioos:station:USF.COMPS:C12:1,2016-07-03T10:35:00Z,27.4980,-83.7220,77.76,1111122 
COMPS,ioos:station:USF.COMPS:C12:1,2016-07-03T11:05:00Z,27.4980,-83.7220,77.85,1111122 
COMPS,ioos:station:USF.COMPS:C12:1,2016-07-03T11:35:00Z,27.4980,-83.7220,76.73,1111122 
COMPS,ioos:station:USF.COMPS:C12:1,2016-07-03T12:05:00Z,27.4980,-83.7220,77.19,1111122 
COMPS,ioos:station:USF.COMPS:C12:1,2016-07-03T12:35:00Z,27.4980,-83.7220,76.84,1111122 
COMPS,ioos:station:USF.COMPS:C12:1,2016-07-03T13:05:00Z,27.4980,-83.7220,77.84,1111122 
COMPS,ioos:station:USF.COMPS:C12:1,2016-07-03T13:35:00Z,27.4980,-83.7220,78.56,1111122 
COMPS,ioos:station:USF.COMPS:C12:1,2016-07-03T14:05:00Z,27.4980,-83.7220,77.64,1111122 
COMPS,ioos:station:USF.COMPS:C12:1,2016-07-03T14:35:00Z,27.4980,-83.7220,76.54,1111122 
COMPS,ioos:station:USF.COMPS:C12:1,2016-07-03T15:05:00Z,27.4980,-83.7220,79.76,1111122 
COMPS,ioos:station:USF.COMPS:C12:1,2016-07-03T15:35:00Z,27.4980,-83.7220,75.76,1111122 
COMPS,ioos:station:USF.COMPS:C12:1,2016-07-03T16:05:00Z,27.4980,-83.7220,73.31,1111122 
COMPS,ioos:station:USF.COMPS:C12:1,2016-07-03T16:35:00Z,27.4980,-83.7220,75.77,1111122 
COMPS,ioos:station:USF.COMPS:C12:1,2016-07-03T17:05:00Z,27.4980,-83.7220,74.19,1111122 
COMPS,ioos:station:USF.COMPS:C12:1,2016-07-03T17:35:00Z,27.4980,-83.7220,72.57,1111122 
COMPS,ioos:station:USF.COMPS:C12:1,2016-07-03T18:05:00Z,27.4980,-83.7220,71.15,1111122 
COMPS,ioos:station:USF.COMPS:C12:1,2016-07-03T18:35:00Z,27.4980,-83.7220,71.5,1111122 
COMPS,ioos:station:USF.COMPS:C12:1,2016-07-03T19:05:00Z,27.4980,-83.7220,70.49,1111122 
COMPS,ioos:station:USF.COMPS:C12:1,2016-07-03T19:35:00Z,27.4980,-83.7220,68.19,1111122 
COMPS,ioos:station:USF.COMPS:C12:1,2016-07-03T20:05:00Z,27.4980,-83.7220,67.58,1111122 
COMPS,ioos:station:USF.COMPS:C12:1,2016-07-03T20:35:00Z,27.4980,-83.7220,65.56,1111122 
COMPS,ioos:station:USF.COMPS:C12:1,2016-07-03T21:05:00Z,27.4980,-83.7220,62.39,1111122 
COMPS,ioos:station:USF.COMPS:C12:1,2016-07-03T21:35:00Z,27.4980,-83.7220,62.79,1111122 
COMPS,ioos:station:USF.COMPS:C12:1,2016-07-03T22:05:00Z,27.4980,-83.7220,64.26,1111122 
COMPS,ioos:station:USF.COMPS:C12:1,2016-07-03T22:35:00Z,27.4980,-83.7220,67.22,1111122 
COMPS,ioos:station:USF.COMPS:C12:1,2016-07-03T23:05:00Z,27.4980,-83.7220,69.73,1111122 
COMPS,ioos:station:USF.COMPS:C12:1,2016-07-03T23:35:00Z,27.4980,-83.7220,69.41,1111122 
COMPS,ioos:station:USF.COMPS:C12:1,2016-07-04T00:05:00Z,27.4980,-83.7220,71.81,1111122 
COMPS,ioos:station:USF.COMPS:C12:1,2016-07-04T00:35:00Z,27.4980,-83.7220,71.39,1111122 
COMPS,ioos:station:USF.COMPS:C12:1,2016-07-04T01:05:00Z,27.4980,-83.7220,72.12,1111122 
COMPS,ioos:station:USF.COMPS:C12:1,2016-07-04T01:35:00Z,27.4980,-83.7220,74.03,1111122 
COMPS,ioos:station:USF.COMPS:C12:1,2016-07-04T02:05:00Z,27.4980,-83.7220,74.12,1111122 
COMPS,ioos:station:USF.COMPS:C12:1,2016-07-04T02:35:00Z,27.4980,-83.7220,76.63,1111122 
COMPS,ioos:station:USF.COMPS:C12:1,2016-07-04T03:05:00Z,27.4980,-83.7220,78.82,1111122 
COMPS,ioos:station:USF.COMPS:C12:1,2016-07-04T03:35:00Z,27.4980,-83.7220,78.64,1111122 
COMPS,ioos:station:USF.COMPS:C12:1,2016-07-04T04:05:00Z,27.4980,-83.7220,77.66,1111122 
COMPS,ioos:station:USF.COMPS:C12:1,2016-07-04T04:35:00Z,27.4980,-83.7220,77.48,1111122 
COMPS,ioos:station:USF.COMPS:C12:1,2016-07-04T05:05:00Z,27.4980,-83.7220,77.97,1111122 
COMPS,ioos:station:USF.COMPS:C12:1,2016-07-04T05:35:00Z,27.4980,-83.7220,78.41,1111122 
COMPS,ioos:station:USF.COMPS:C12:1,2016-07-04T06:05:00Z,27.4980,-83.7220,79.19,1111122 
COMPS,ioos:station:USF.COMPS:C12:1,2016-07-04T06:35:00Z,27.4980,-83.7220,78.61,1111122 
COMPS,ioos:station:USF.COMPS:C12:1,2016-07-04T07:05:00Z,27.4980,-83.7220,77.68,1111122 
COMPS,ioos:station:USF.COMPS:C12:1,2016-07-04T07:35:00Z,27.4980,-83.7220,77.37,1111122 
COMPS,ioos:station:USF.COMPS:C12:1,2016-07-04T08:05:00Z,27.4980,-83.7220,76.57,1111122 
COMPS,ioos:station:USF.COMPS:C12:1,2016-07-04T08:35:00Z,27.4980,-83.7220,78.45,1111122 
COMPS,ioos:station:USF.COMPS:C12:1,2016-07-04T09:05:00Z,27.4980,-83.7220,78.93,1111122 
COMPS,ioos:station:USF.COMPS:C12:1,2016-07-04T09:35:00Z,27.4980,-83.7220,79.12,1111122 
COMPS,ioos:station:USF.COMPS:C12:1,2016-07-04T10:05:00Z,27.4980,-83.7220,80.01,1111122 
COMPS,ioos:station:USF.COMPS:C12:1,2016-07-04T10:35:00Z,27.4980,-83.7220,77.69,1111122 
COMPS,ioos:station:USF.COMPS:C12:1,2016-07-04T11:05:00Z,27.4980,-83.7220,77.74,1111122 
COMPS,ioos:station:USF.COMPS:C12:1,2016-07-04T11:35:00Z,27.4980,-83.7220,75.32,1111122 
COMPS,ioos:station:USF.COMPS:C12:1,2016-07-04T12:05:00Z,27.4980,-83.7220,76.61,1111122 
COMPS,ioos:station:USF.COMPS:C12:1,2016-07-04T12:35:00Z,27.4980,-83.7220,76.37,1111122 
COMPS,ioos:station:USF.COMPS:C12:1,2016-07-04T13:05:00Z,27.4980,-83.7220,76.98,1111122 
COMPS,ioos:station:USF.COMPS:C12:1,2016-07-04T13:35:00Z,27.4980,-83.7220,76.9,1111122 
COMPS,ioos:station:USF.COMPS:C12:1,2016-07-04T14:05:00Z,27.4980,-83.7220,77.34,1111122 
COMPS,ioos:station:USF.COMPS:C12:1,2016-07-04T14:35:00Z,27.4980,-83.7220,77.27,1111122 
COMPS,ioos:station:USF.COMPS:C12:1,2016-07-04T15:05:00Z,27.4980,-83.7220,77.65,1111122 
COMPS,ioos:station:USF.COMPS:C12:1,2016-07-04T15:35:00Z,27.4980,-83.7220,77.08,1111122 
COMPS,ioos:station:USF.COMPS:C12:1,2016-07-04T16:05:00Z,27.4980,-83.7220,77.0,1111122 
COMPS,ioos:station:USF.COMPS:C12:1,2016-07-04T16:35:00Z,27.4980,-83.7220,76.92,1111122 
COMPS,ioos:station:USF.COMPS:C12:1,2016-07-04T17:05:00Z,27.4980,-83.7220,76.88,1111122 
COMPS,ioos:station:USF.COMPS:C12:1,2016-07-04T17:35:00Z,27.4980,-83.7220,74.1,1111122 
COMPS,ioos:station:USF.COMPS:C12:1,2016-07-04T18:05:00Z,27.4980,-83.7220,74.35,1111122 
COMPS,ioos:station:USF.COMPS:C12:1,2016-07-04T18:35:00Z,27.4980,-83.7220,75.74,1111122 
COMPS,ioos:station:USF.COMPS:C12:1,2016-07-04T19:05:00Z,27.4980,-83.7220,74.55,1111122 
COMPS,ioos:station:USF.COMPS:C12:1,2016-07-04T19:35:00Z,27.4980,-83.7220,73.96,1111122 
COMPS,ioos:station:USF.COMPS:C12:1,2016-07-04T20:05:00Z,27.4980,-83.7220,72.43,1111122 
COMPS,ioos:station:USF.COMPS:C12:1,2016-07-04T20:35:00Z,27.4980,-83.7220,72.64,1111122 
COMPS,ioos:station:USF.COMPS:C12:1,2016-07-04T21:05:00Z,27.4980,-83.7220,73.31,1111122 
COMPS,ioos:station:USF.COMPS:C12:1,2016-07-04T21:35:00Z,27.4980,-83.7220,73.0,1111122 
COMPS,ioos:station:USF.COMPS:C12:1,2016-07-04T22:05:00Z,27.4980,-83.7220,72.78,1111122 
COMPS,ioos:station:USF.COMPS:C12:1,2016-07-04T22:35:00Z,27.4980,-83.7220,73.3,1111122 
COMPS,ioos:station:USF.COMPS:C12:1,2016-07-04T23:05:00Z,27.4980,-83.7220,74.05,1111122 
COMPS,ioos:station:USF.COMPS:C12:1,2016-07-04T23:35:00Z,27.4980,-83.7220,74.28,1111122 
COMPS,ioos:station:USF.COMPS:C12:1,2016-07-05T00:05:00Z,27.4980,-83.7220,74.16,1111122 
COMPS,ioos:station:USF.COMPS:C12:1,2016-07-05T00:35:00Z,27.4980,-83.7220,73.56,1111122 
COMPS,ioos:station:USF.COMPS:C12:1,2016-07-05T01:05:00Z,27.4980,-83.7220,73.94,1111122 
COMPS,ioos:station:USF.COMPS:C12:1,2016-07-05T01:35:00Z,27.4980,-83.7220,72.93,1111122 
COMPS,ioos:station:USF.COMPS:C12:1,2016-07-05T02:05:00Z,27.4980,-83.7220,73.94,1111122 
COMPS,ioos:station:USF.COMPS:C12:1,2016-07-05T02:35:00Z,27.4980,-83.7220,74.17,1111122 
COMPS,ioos:station:USF.COMPS:C12:1,2016-07-05T03:05:00Z,27.4980,-83.7220,75.53,1111122 
COMPS,ioos:station:USF.COMPS:C12:1,2016-07-05T03:35:00Z,27.4980,-83.7220,75.97,1111122 
COMPS,ioos:station:USF.COMPS:C12:1,2016-07-05T04:05:00Z,27.4980,-83.7220,76.23,1111122 
COMPS,ioos:station:USF.COMPS:C12:1,2016-07-05T04:35:00Z,27.4980,-83.7220,77.23,1111122 
COMPS,ioos:station:USF.COMPS:C12:1,2016-07-05T05:05:00Z,27.4980,-83.7220,77.8,1111122 
COMPS,ioos:station:USF.COMPS:C12:1,2016-07-05T05:35:00Z,27.4980,-83.7220,78.11,1111122 
COMPS,ioos:station:USF.COMPS:C12:1,2016-07-05T06:05:00Z,27.4980,-83.7220,78.36,1111122 
COMPS,ioos:station:USF.COMPS:C12:1,2016-07-05T06:35:00Z,27.4980,-83.7220,77.24,1111122 
COMPS,ioos:station:USF.COMPS:C12:1,2016-07-05T07:05:00Z,27.4980,-83.7220,77.04,1111122 
COMPS,ioos:station:USF.COMPS:C12:1,2016-07-05T07:35:00Z,27.4980,-83.7220,77.97,1111122 
COMPS,ioos:station:USF.COMPS:C12:1,2016-07-05T08:05:00Z,27.4980,-83.7220,78.05,1111122 
COMPS,ioos:station:USF.COMPS:C12:1,2016-07-05T08:35:00Z,27.4980,-83.7220,78.02,1111122 
COMPS,ioos:station:USF.COMPS:C12:1,2016-07-05T09:05:00Z,27.4980,-83.7220,77.71,1111122 
COMPS,ioos:station:USF.COMPS:C12:1,2016-07-05T09:35:00Z,27.4980,-83.7220,78.2,1111122 
COMPS,ioos:station:USF.COMPS:C12:1,2016-07-05T10:05:00Z,27.4980,-83.7220,78.37,1111122 
COMPS,ioos:station:USF.COMPS:C12:1,2016-07-05T10:35:00Z,27.4980,-83.7220,79.07,1111122 
COMPS,ioos:station:USF.COMPS:C12:1,2016-07-05T11:05:00Z,27.4980,-83.7220,79.3,1111122 
COMPS,ioos:station:USF.COMPS:C12:1,2016-07-05T11:35:00Z,27.4980,-83.7220,79.11,1111122 
COMPS,ioos:station:USF.COMPS:C12:1,2016-07-05T12:05:00Z,27.4980,-83.7220,76.88,1111122 
COMPS,ioos:station:USF.COMPS:C12:1,2016-07-05T12:35:00Z,27.4980,-83.7220,76.31,1111122 
COMPS,ioos:station:USF.COMPS:C12:1,2016-07-05T13:05:00Z,27.4980,-83.7220,75.56,1111122 
COMPS,ioos:station:USF.COMPS:C12:1,2016-07-05T13:35:00Z,27.4980,-83.7220,76.05,1111122 
COMPS,ioos:station:USF.COMPS:C12:1,2016-07-05T14:05:00Z,27.4980,-83.7220,77.34,1111122 
COMPS,ioos:station:USF.COMPS:C12:1,2016-07-05T14:35:00Z,27.4980,-83.7220,76.61,1111122 
COMPS,ioos:station:USF.COMPS:C12:1,2016-07-05T15:05:00Z,27.4980,-83.7220,76.7,1111122 
COMPS,ioos:station:USF.COMPS:C12:1,2016-07-05T15:35:00Z,27.4980,-83.7220,77.2,1111122 
COMPS,ioos:station:USF.COMPS:C12:1,2016-07-05T16:05:00Z,27.4980,-83.7220,76.2,1111122 
COMPS,ioos:station:USF.COMPS:C12:1,2016-07-05T16:35:00Z,27.4980,-83.7220,76.23,1111122 
COMPS,ioos:station:USF.COMPS:C12:1,2016-07-05T17:05:00Z,27.4980,-83.7220,75.04,1111122 
COMPS,ioos:station:USF.COMPS:C12:1,2016-07-05T17:35:00Z,27.4980,-83.7220,75.25,1111122 
COMPS,ioos:station:USF.COMPS:C12:1,2016-07-05T18:05:00Z,27.4980,-83.7220,73.46,1111122 
COMPS,ioos:station:USF.COMPS:C12:1,2016-07-05T18:35:00Z,27.4980,-83.7220,69.77,1111122 
COMPS,ioos:station:USF.COMPS:C12:1,2016-07-05T19:05:00Z,27.4980,-83.7220,71.56,1111122 
COMPS,ioos:station:USF.COMPS:C12:1,2016-07-05T19:35:00Z,27.4980,-83.7220,71.69,1111122 
COMPS,ioos:station:USF.COMPS:C12:1,2016-07-05T20:05:00Z,27.4980,-83.7220,70.88,1111122 
COMPS,ioos:station:USF.COMPS:C12:1,2016-07-05T20:35:00Z,27.4980,-83.7220,72.3,1111122 
COMPS,ioos:station:USF.COMPS:C12:1,2016-07-05T21:05:00Z,27.4980,-83.7220,71.65,1111122 
COMPS,ioos:station:USF.COMPS:C12:1,2016-07-05T21:35:00Z,27.4980,-83.7220,70.99,1111122 
COMPS,ioos:station:USF.COMPS:C12:1,2016-07-05T22:05:00Z,27.4980,-83.7220,70.27,1111122 
COMPS,ioos:station:USF.COMPS:C12:1,2016-07-05T22:35:00Z,27.4980,-83.7220,69.36,1111122 
COMPS,ioos:station:USF.COMPS:C12:1,2016-07-05T23:05:00Z,27.4980,-83.7220,69.88,1111122 
COMPS,ioos:station:USF.COMPS:C12:1,2016-07-05T23:35:00Z,27.4980,-83.7220,69.45,1111122 
COMPS,ioos:station:USF.COMPS:C12:1,2016-07-06T00:05:00Z,27.4980,-83.7220,69.61,1111122 
COMPS,ioos:station:USF.COMPS:C12:1,2016-07-06T00:35:00Z,27.4980,-83.7220,70.49,1111122 
COMPS,ioos:station:USF.COMPS:C12:1,2016-07-06T01:05:00Z,27.4980,-83.7220,71.05,1111122 
COMPS,ioos:station:USF.COMPS:C12:1,2016-07-06T01:35:00Z,27.4980,-83.7220,71.33,1111122 
COMPS,ioos:station:USF.COMPS:C12:1,2016-07-06T02:05:00Z,27.4980,-83.7220,73.44,1111122 
COMPS,ioos:station:USF.COMPS:C12:1,2016-07-06T02:35:00Z,27.4980,-83.7220,74.51,1111122 
COMPS,ioos:station:USF.COMPS:C12:1,2016-07-06T03:05:00Z,27.4980,-83.7220,73.82,1111122 
COMPS,ioos:station:USF.COMPS:C12:1,2016-07-06T03:35:00Z,27.4980,-83.7220,75.0,1111122 
COMPS,ioos:station:USF.COMPS:C12:1,2016-07-06T04:05:00Z,27.4980,-83.7220,74.7,1111122 
COMPS,ioos:station:USF.COMPS:C12:1,2016-07-06T04:35:00Z,27.4980,-83.7220,74.91,1111122 
COMPS,ioos:station:USF.COMPS:C12:1,2016-07-06T05:05:00Z,27.4980,-83.7220,74.5,1111122 
COMPS,ioos:station:USF.COMPS:C12:1,2016-07-06T05:35:00Z,27.4980,-83.7220,74.99,1111122 
COMPS,ioos:station:USF.COMPS:C12:1,2016-07-06T06:05:00Z,27.4980,-83.7220,76.2,1111122 
COMPS,ioos:station:USF.COMPS:C12:1,2016-07-06T06:35:00Z,27.4980,-83.7220,76.84,1111122 
COMPS,ioos:station:USF.COMPS:C12:1,2016-07-06T07:05:00Z,27.4980,-83.7220,77.16,1111122 
COMPS,ioos:station:USF.COMPS:C12:1,2016-07-06T07:35:00Z,27.4980,-83.7220,75.89,1111122 
COMPS,ioos:station:USF.COMPS:C12:1,2016-07-06T08:05:00Z,27.4980,-83.7220,76.81,1111122 
COMPS,ioos:station:USF.COMPS:C12:1,2016-07-06T08:35:00Z,27.4980,-83.7220,77.59,1111122 
COMPS,ioos:station:USF.COMPS:C12:1,2016-07-06T09:05:00Z,27.4980,-83.7220,77.18,1111122 
COMPS,ioos:station:USF.COMPS:C12:1,2016-07-06T09:35:00Z,27.4980,-83.7220,77.17,1111122 
COMPS,ioos:station:USF.COMPS:C12:1,2016-07-06T10:05:00Z,27.4980,-83.7220,78.67,1111122 
COMPS,ioos:station:USF.COMPS:C12:1,2016-07-06T10:35:00Z,27.4980,-83.7220,79.49,1111122 
COMPS,ioos:station:USF.COMPS:C12:1,2016-07-06T11:05:00Z,27.4980,-83.7220,79.22,1111122 
COMPS,ioos:station:USF.COMPS:C12:1,2016-07-06T11:35:00Z,27.4980,-83.7220,75.97,1111122 
COMPS,ioos:station:USF.COMPS:C12:1,2016-07-06T12:05:00Z,27.4980,-83.7220,74.95,1111122 
COMPS,ioos:station:USF.COMPS:C12:1,2016-07-06T12:35:00Z,27.4980,-83.7220,74.67,1111122 
COMPS,ioos:station:USF.COMPS:C12:1,2016-07-06T13:05:00Z,27.4980,-83.7220,75.26,1111122 
COMPS,ioos:station:USF.COMPS:C12:1,2016-07-06T13:35:00Z,27.4980,-83.7220,74.98,1111122 
COMPS,ioos:station:USF.COMPS:C12:1,2016-07-06T14:05:00Z,27.4980,-83.7220,76.14,1111122 
COMPS,ioos:station:USF.COMPS:C12:1,2016-07-06T14:35:00Z,27.4980,-83.7220,75.16,1111122 
COMPS,ioos:station:USF.COMPS:C12:1,2016-07-06T15:05:00Z,27.4980,-83.7220,74.51,1111122 
COMPS,ioos:station:USF.COMPS:C12:1,2016-07-06T15:35:00Z,27.4980,-83.7220,74.54,1111122 